Time,TemperatureF,DewpointF,PressureIn,WindDirection,WindDirectionDegrees,WindSpeedMPH,WindSpeedGustMPH,Humidity,HourlyPrecipIn,Conditions,Clouds,dailyrainin,SoftwareType,DateUTC
2013-08-04 00:02:00,63.0,-99.9,30.07,SE,138,1.0,3.0,-999,-99.99,,,-99.99,,2013-08-04 07:02:00,
2013-08-04 00:12:00,63.0,-99.9,30.08,SE,140,2.0,3.0,-999,-99.99,,,-99.99,,2013-08-04 07:12:00,
2013-08-04 00:33:00,62.0,-99.9,30.07,SSE,165,2.0,3.0,-999,-99.99,,,-99.99,,2013-08-04 07:33:00,
2013-08-04 00:43:00,61.0,-99.9,30.07,WSW,246,5.0,6.0,-999,-99.99,,,-99.99,,2013-08-04 07:43:00,
2013-08-04 00:53:00,61.0,-99.9,30.07,WNW,293,1.0,4.0,-999,-99.99,,,-99.99,,2013-08-04 07:53:00,
2013-08-04 01:02:00,61.0,-99.9,30.07,SE,146,0.0,1.0,-999,-99.99,,,-99.99,,2013-08-04 08:02:00,
2013-08-04 01:33:00,60.0,-99.9,30.06,WNW,285,5.0,6.0,-999,-99.99,,,-99.99,,2013-08-04 08:33:00,
2013-08-04 01:43:00,60.0,-99.9,30.06,North,9,1.0,5.0,-999,-99.99,,,-99.99,,2013-08-04 08:43:00,
2013-08-04 01:53:00,60.0,-99.9,30.06,WNW,298,1.0,2.0,-999,-99.99,,,-99.99,,2013-08-04 08:53:00,
2013-08-04 02:02:00,60.0,-99.9,30.06,NNW,327,1.0,1.0,-999,-99.99,,,-99.99,,2013-08-04 09:02:00,
2013-08-04 02:12:00,60.0,-99.9,30.06,SSW,212,-999.0,1.0,-999,-99.99,,,-99.99,,2013-08-04 09:12:00,
2013-08-04 02:32:00,59.0,-99.9,30.06,NNW,347,0.0,4.0,-999,-99.99,,,-99.99,,2013-08-04 09:32:00,
2013-08-04 03:02:00,58.0,-99.9,30.06,NW,310,7.0,9.0,-999,-99.99,,,-99.99,,2013-08-04 10:02:00,
2013-08-04 03:12:00,58.0,-99.9,30.06,NW,312,5.0,8.0,-999,-99.99,,,-99.99,,2013-08-04 10:12:00,
2013-08-04 03:43:00,59.0,-99.9,30.06,NW,304,3.0,4.0,-999,-99.99,,,-99.99,,2013-08-04 10:43:00,
2013-08-04 03:53:00,59.0,-99.9,30.06,NNW,331,1.0,2.0,-999,-99.99,,,-99.99,,2013-08-04 10:53:00,
2013-08-04 04:02:00,59.0,-99.9,30.06,WSW,240,-999.0,1.0,-999,-99.99,,,-99.99,,2013-08-04 11:02:00,
2013-08-04 04:42:00,58.0,-99.9,30.06,WNW,299,3.0,6.0,-999,-99.99,,,-99.99,,2013-08-04 11:42:00,
2013-08-04 04:53:00,58.0,-99.9,30.06,NW,307,3.0,4.0,-999,-99.99,,,-99.99,,2013-08-04 11:53:00,
2013-08-04 05:02:00,58.0,-99.9,30.06,NW,304,6.0,7.0,-999,-99.99,,,-99.99,,2013-08-04 12:02:00,
2013-08-04 05:12:00,57.0,-99.9,30.06,NW,312,6.0,9.0,-999,-99.99,,,-99.99,,2013-08-04 12:12:00,
2013-08-04 05:33:00,57.0,-99.9,30.06,NW,310,6.0,7.0,-999,-99.99,,,-99.99,,2013-08-04 12:33:00,
2013-08-04 05:43:00,57.0,-99.9,30.06,NW,311,6.0,8.0,-999,-99.99,,,-99.99,,2013-08-04 12:43:00,
2013-08-04 05:53:00,57.0,-99.9,30.06,NW,308,4.0,6.0,-999,-99.99,,,-99.99,,2013-08-04 12:53:00,
2013-08-04 06:02:00,57.0,-99.9,30.06,WNW,287,5.0,6.0,-999,-99.99,,,-99.99,,2013-08-04 13:02:00,
2013-08-04 07:02:00,57.0,-99.9,30.07,West,274,1.0,3.0,-999,-99.99,,,-99.99,,2013-08-04 14:02:00,
2013-08-04 07:12:00,56.0,-99.9,30.07,West,264,1.0,4.0,-999,-99.99,,,-99.99,,2013-08-04 14:12:00,
2013-08-04 08:02:00,58.0,-99.9,30.08,NW,308,-999.0,5.0,-999,-99.99,,,-99.99,,2013-08-04 15:02:00,
2013-08-04 08:32:00,57.0,-99.9,30.08,NW,306,6.0,8.0,-999,-99.99,,,-99.99,,2013-08-04 15:32:00,
2013-08-04 08:43:00,57.0,-99.9,30.08,WNW,292,6.0,8.0,-999,-99.99,,,-99.99,,2013-08-04 15:43:00,
2013-08-04 09:02:00,57.0,-99.9,30.08,WNW,301,8.0,9.0,-999,-99.99,,,-99.99,,2013-08-04 16:02:00,
2013-08-04 09:22:00,57.0,-99.9,30.08,WNW,302,10.0,10.0,-999,-99.99,,,-99.99,,2013-08-04 16:22:00,
2013-08-04 09:43:00,58.0,-99.9,30.07,WNW,290,9.0,13.0,-999,-99.99,,,-99.99,,2013-08-04 16:43:00,
2013-08-04 09:53:00,59.0,-99.9,30.07,WNW,285,8.0,11.0,-999,-99.99,,,-99.99,,2013-08-04 16:53:00,
2013-08-04 10:02:00,60.0,-99.9,30.07,NW,307,5.0,11.0,-999,-99.99,,,-99.99,,2013-08-04 17:02:00,
2013-08-04 10:12:00,60.0,-99.9,30.07,WNW,296,9.0,10.0,-999,-99.99,,,-99.99,,2013-08-04 17:12:00,
2013-08-04 10:32:00,61.0,-99.9,30.07,NW,309,9.0,11.0,-999,-99.99,,,-99.99,,2013-08-04 17:32:00,
2013-08-04 10:43:00,61.0,-99.9,30.07,WNW,299,9.0,11.0,-999,-99.99,,,-99.99,,2013-08-04 17:43:00,
2013-08-04 10:53:00,62.0,-99.9,30.06,NW,309,4.0,9.0,-999,-99.99,,,-99.99,,2013-08-04 17:53:00,
2013-08-04 11:33:00,63.0,-99.9,30.06,West,280,7.0,10.0,-999,-99.99,,,-99.99,,2013-08-04 18:33:00,
2013-08-04 11:43:00,65.0,-99.9,30.06,WNW,295,7.0,11.0,-999,-99.99,,,-99.99,,2013-08-04 18:43:00,
2013-08-04 11:52:00,65.0,-99.9,30.06,WNW,295,7.0,11.0,-999,-99.99,,,-99.99,,2013-08-04 18:52:00,
2013-08-04 12:02:00,65.0,-99.9,30.06,WNW,301,10.0,13.0,-999,-99.99,,,-99.99,,2013-08-04 19:02:00,
2013-08-04 12:44:00,68.0,-99.9,30.05,NW,311,9.0,11.0,-999,-99.99,,,-99.99,,2013-08-04 19:44:00,
2013-08-04 12:53:00,69.0,-99.9,30.05,NW,309,9.0,12.0,-999,-99.99,,,-99.99,,2013-08-04 19:53:00,
2013-08-04 13:02:00,69.0,-99.9,30.04,NW,314,12.0,14.0,-999,-99.99,,,-99.99,,2013-08-04 20:02:00,
2013-08-04 13:13:00,68.0,-99.9,30.04,NW,312,17.0,18.0,-999,-99.99,,,-99.99,,2013-08-04 20:13:00,
2013-08-04 13:42:00,70.0,-99.9,30.04,NW,317,8.0,13.0,-999,-99.99,,,-99.99,,2013-08-04 20:42:00,
2013-08-04 13:53:00,69.0,-99.9,30.04,NW,311,14.0,17.0,-999,-99.99,,,-99.99,,2013-08-04 20:53:00,
2013-08-04 14:02:00,69.0,-99.9,30.04,NW,311,14.0,15.0,-999,-99.99,,,-99.99,,2013-08-04 21:02:00,
2013-08-04 14:12:00,69.0,-99.9,30.03,NW,311,13.0,16.0,-999,-99.99,,,-99.99,,2013-08-04 21:12:00,
2013-08-04 14:32:00,71.0,-99.9,30.02,NW,313,9.0,14.0,-999,-99.99,,,-99.99,,2013-08-04 21:32:00,
2013-08-04 14:43:00,71.0,-99.9,30.02,NW,326,7.0,16.0,-999,-99.99,,,-99.99,,2013-08-04 21:43:00,
2013-08-04 14:53:00,70.0,-99.9,30.02,NW,312,17.0,20.0,-999,-99.99,,,-99.99,,2013-08-04 21:53:00,
2013-08-04 15:22:00,72.0,-99.9,30.01,NW,325,4.0,15.0,-999,-99.99,,,-99.99,,2013-08-04 22:22:00,
2013-08-04 15:32:00,73.0,-99.9,30.01,NW,311,7.0,12.0,-999,-99.99,,,-99.99,,2013-08-04 22:32:00,
2013-08-04 15:53:00,71.0,-99.9,30.00,NW,311,15.0,16.0,-999,-99.99,,,-99.99,,2013-08-04 22:53:00,
2013-08-04 16:02:00,72.0,-99.9,29.99,NW,313,13.0,16.0,-999,-99.99,,,-99.99,,2013-08-04 23:02:00,
2013-08-04 16:12:00,73.0,-99.9,29.99,NW,321,7.0,15.0,-999,-99.99,,,-99.99,,2013-08-04 23:12:00,
2013-08-04 16:32:00,73.0,-99.9,29.98,NW,313,14.0,15.0,-999,-99.99,,,-99.99,,2013-08-04 23:32:00,
2013-08-04 16:43:00,73.0,-99.9,29.98,NW,316,15.0,17.0,-999,-99.99,,,-99.99,,2013-08-04 23:43:00,
2013-08-04 16:53:00,73.0,-99.9,29.98,NW,312,13.0,17.0,-999,-99.99,,,-99.99,,2013-08-04 23:53:00,
2013-08-04 17:02:00,74.0,-99.9,29.98,NW,318,7.0,11.0,-999,-99.99,,,-99.99,,2013-08-05 00:02:00,
2013-08-04 17:12:00,73.0,-99.9,29.97,NW,324,4.0,12.0,-999,-99.99,,,-99.99,,2013-08-05 00:12:00,
2013-08-04 17:33:00,72.0,-99.9,29.97,NW,316,12.0,16.0,-999,-99.99,,,-99.99,,2013-08-05 00:33:00,
2013-08-04 17:42:00,74.0,-99.9,29.97,NW,320,11.0,14.0,-999,-99.99,,,-99.99,,2013-08-05 00:42:00,
2013-08-04 17:53:00,75.0,-99.9,29.97,North,351,2.0,10.0,-999,-99.99,,,-99.99,,2013-08-05 00:53:00,
2013-08-04 18:02:00,76.0,-99.9,29.96,NNE,30,2.0,6.0,-999,-99.99,,,-99.99,,2013-08-05 01:02:00,
2013-08-04 18:12:00,76.0,-99.9,29.96,NNW,328,11.0,13.0,-999,-99.99,,,-99.99,,2013-08-05 01:12:00,
2013-08-04 18:33:00,76.0,-99.9,29.96,NNW,341,10.0,14.0,-999,-99.99,,,-99.99,,2013-08-05 01:33:00,
2013-08-04 18:43:00,76.0,-99.9,29.96,NNW,346,7.0,13.0,-999,-99.99,,,-99.99,,2013-08-05 01:43:00,
2013-08-04 18:52:00,76.0,-99.9,29.96,NW,314,2.0,11.0,-999,-99.99,,,-99.99,,2013-08-05 01:52:00,
2013-08-04 19:02:00,76.0,-99.9,29.96,NNW,331,8.0,13.0,-999,-99.99,,,-99.99,,2013-08-05 02:02:00,
2013-08-04 19:33:00,75.0,-99.9,29.95,NNW,336,3.0,12.0,-999,-99.99,,,-99.99,,2013-08-05 02:33:00,
2013-08-04 19:43:00,75.0,-99.9,29.95,NW,323,3.0,8.0,-999,-99.99,,,-99.99,,2013-08-05 02:43:00,
2013-08-04 19:53:00,74.0,-99.9,29.95,NW,321,9.0,13.0,-999,-99.99,,,-99.99,,2013-08-05 02:53:00,
2013-08-04 20:02:00,73.0,-99.9,29.96,NW,320,11.0,13.0,-999,-99.99,,,-99.99,,2013-08-05 03:02:00,
2013-08-04 20:12:00,72.0,-99.9,29.96,NW,316,9.0,10.0,-999,-99.99,,,-99.99,,2013-08-05 03:12:00,
2013-08-04 20:42:00,73.0,-99.9,29.96,NNW,338,2.0,6.0,-999,-99.99,,,-99.99,,2013-08-05 03:42:00,
2013-08-04 21:02:00,71.0,-99.9,29.96,NW,311,5.0,10.0,-999,-99.99,,,-99.99,,2013-08-05 04:02:00,
2013-08-04 21:12:00,70.0,-99.9,29.97,NW,312,3.0,8.0,-999,-99.99,,,-99.99,,2013-08-05 04:12:00,
2013-08-04 21:22:00,70.0,-99.9,29.97,NW,312,3.0,8.0,-999,-99.99,,,-99.99,,2013-08-05 04:22:00,
2013-08-04 21:32:00,72.0,-99.9,29.97,NNW,337,5.0,10.0,-999,-99.99,,,-99.99,,2013-08-05 04:32:00,
2013-08-04 21:43:00,71.0,-99.9,29.97,NW,322,5.0,9.0,-999,-99.99,,,-99.99,,2013-08-05 04:43:00,
2013-08-04 21:52:00,71.0,-99.9,29.98,NW,317,6.0,8.0,-999,-99.99,,,-99.99,,2013-08-05 04:52:00,
2013-08-04 22:02:00,71.0,-99.9,29.98,NW,313,7.0,11.0,-999,-99.99,,,-99.99,,2013-08-05 05:02:00,
2013-08-04 22:12:00,70.0,-99.9,29.98,NW,317,7.0,11.0,-999,-99.99,,,-99.99,,2013-08-05 05:12:00,
2013-08-04 22:43:00,68.0,-99.9,29.99,NW,308,7.0,11.0,-999,-99.99,,,-99.99,,2013-08-05 05:43:00,
2013-08-04 22:53:00,67.0,-99.9,29.99,NW,307,4.0,8.0,-999,-99.99,,,-99.99,,2013-08-05 05:53:00,
2013-08-04 23:02:00,67.0,-99.9,29.99,NW,308,2.0,6.0,-999,-99.99,,,-99.99,,2013-08-05 06:02:00,
2013-08-04 23:12:00,69.0,-99.9,29.99,NNW,327,8.0,12.0,-999,-99.99,,,-99.99,,2013-08-05 06:12:00,